Time,TemperatureF,DewpointF,PressureIn,WindDirection,WindDirectionDegrees,WindSpeedMPH,WindSpeedGustMPH,Humidity,HourlyPrecipIn,Conditions,Clouds,dailyrainin,SoftwareType,DateUTC
2013-03-04 00:00:00,25.5,17.7,30.01,ENE,68,0.0,0.0,72,0.00,CLR,SKC,0.00,WeatherDisplay:10.37,2013-03-04 05:00:00,
2013-03-04 00:05:00,25.3,17.9,30.02,ENE,68,0.0,0.0,73,0.00,CLR,SKC,0.00,WeatherDisplay:10.37,2013-03-04 05:05:00,
2013-03-04 00:10:00,25.3,17.9,30.02,ENE,68,0.0,0.0,73,0.00,CLR,SKC,0.00,WeatherDisplay:10.37,2013-03-04 05:10:00,
2013-03-04 00:15:00,25.2,17.7,30.02,ENE,68,0.0,0.0,73,0.00,CLR,SKC,0.00,WeatherDisplay:10.37,2013-03-04 05:15:00,
2013-03-04 00:20:00,25.0,17.5,30.03,ENE,68,0.0,0.0,73,0.00,CLR,SKC,0.00,WeatherDisplay:10.37,2013-03-04 05:20:00,
2013-03-04 00:25:00,25.0,17.9,30.03,ENE,68,0.0,0.0,74,0.00,CLR,SKC,0.00,WeatherDisplay:10.37,2013-03-04 05:25:00,
2013-03-04 00:30:00,25.0,17.5,30.03,ENE,68,0.0,0.0,73,0.00,CLR,SKC,0.00,WeatherDisplay:10.37,2013-03-04 05:30:00,
2013-03-04 00:35:00,24.6,17.5,30.02,ENE,68,0.0,0.0,74,0.00,CLR,SKC,0.00,WeatherDisplay:10.37,2013-03-04 05:35:00,
2013-03-04 00:40:00,24.6,17.5,30.03,ENE,68,0.0,0.0,74,0.00,CLR,SKC,0.00,WeatherDisplay:10.37,2013-03-04 05:40:00,
2013-03-04 00:45:00,24.6,17.5,30.02,ENE,68,0.0,0.0,74,0.00,CLR,SKC,0.00,WeatherDisplay:10.37,2013-03-04 05:45:00,
2013-03-04 00:50:00,24.6,17.8,30.02,ENE,68,0.0,0.0,75,0.00,CLR,SKC,0.00,WeatherDisplay:10.37,2013-03-04 05:50:00,
2013-03-04 00:55:00,24.6,17.8,30.02,ENE,68,0.0,0.0,75,0.00,CLR,SKC,0.00,WeatherDisplay:10.37,2013-03-04 05:55:00,
2013-03-04 01:00:00,24.6,17.8,30.03,ENE,68,0.0,0.0,75,0.00,CLR,SKC,0.00,WeatherDisplay:10.37,2013-03-04 06:00:00,
2013-03-04 01:05:00,24.4,18.0,30.02,ENE,68,0.0,0.0,76,0.00,CLR,SKC,0.00,WeatherDisplay:10.37,2013-03-04 06:05:00,
2013-03-04 01:10:00,24.4,18.0,30.02,ENE,68,0.0,0.0,76,0.00,CLR,SKC,0.00,WeatherDisplay:10.37,2013-03-04 06:10:00,
2013-03-04 01:15:00,24.1,17.6,30.03,ENE,68,0.0,0.0,76,0.00,CLR,SKC,0.00,WeatherDisplay:10.37,2013-03-04 06:15:00,
2013-03-04 01:20:00,24.1,17.9,30.03,ENE,68,0.0,0.0,77,0.00,CLR,SKC,0.00,WeatherDisplay:10.37,2013-03-04 06:20:00,
2013-03-04 01:25:00,24.1,17.9,30.03,ENE,68,0.0,0.0,77,0.00,CLR,SKC,0.00,WeatherDisplay:10.37,2013-03-04 06:25:00,
2013-03-04 01:30:00,23.9,17.7,30.03,ENE,68,0.0,0.0,77,0.00,CLR,SKC,0.00,WeatherDisplay:10.37,2013-03-04 06:30:00,
2013-03-04 01:35:00,23.7,17.9,30.03,ENE,68,0.0,0.0,78,0.00,CLR,SKC,0.00,WeatherDisplay:10.37,2013-03-04 06:35:00,
2013-03-04 01:40:00,23.9,18.0,30.03,ENE,68,0.0,0.0,78,0.00,CLR,SKC,0.00,WeatherDisplay:10.37,2013-03-04 06:40:00,
2013-03-04 01:45:00,23.9,18.0,30.03,ENE,68,0.0,0.0,78,0.00,CLR,SKC,0.00,WeatherDisplay:10.37,2013-03-04 06:45:00,
2013-03-04 01:50:00,23.9,18.0,30.03,ENE,68,0.0,0.0,78,0.00,CLR,SKC,0.00,WeatherDisplay:10.37,2013-03-04 06:50:00,
2013-03-04 01:55:00,23.9,18.0,30.03,ENE,68,0.0,0.0,78,0.00,CLR,SKC,0.00,WeatherDisplay:10.37,2013-03-04 06:55:00,
2013-03-04 02:00:00,23.7,18.2,30.03,ENE,68,0.0,0.0,79,0.00,CLR,SKC,0.00,WeatherDisplay:10.37,2013-03-04 07:00:00,
2013-03-04 02:05:00,23.5,18.0,30.04,ENE,68,0.0,0.0,79,0.00,CLR,SKC,0.00,WeatherDisplay:10.37,2013-03-04 07:05:00,
2013-03-04 02:10:00,23.5,18.0,30.04,ENE,68,0.0,0.0,79,0.00,CLR,SKC,0.00,WeatherDisplay:10.37,2013-03-04 07:10:00,
2013-03-04 02:15:00,23.4,17.8,30.04,ENE,68,0.0,0.0,79,0.00,CLR,SKC,0.00,WeatherDisplay:10.37,2013-03-04 07:15:00,
2013-03-04 02:20:00,23.2,17.6,30.05,ENE,68,0.0,0.0,79,0.00,CLR,SKC,0.00,WeatherDisplay:10.37,2013-03-04 07:20:00,
2013-03-04 02:25:00,23.2,17.6,30.05,ENE,68,0.0,0.0,79,0.00,CLR,SKC,0.00,WeatherDisplay:10.37,2013-03-04 07:25:00,
2013-03-04 02:30:00,22.8,17.3,30.05,ENE,68,0.0,0.0,79,0.00,CLR,SKC,0.00,WeatherDisplay:10.37,2013-03-04 07:30:00,
2013-03-04 02:35:00,22.8,17.3,30.06,ENE,68,0.0,0.0,79,0.00,CLR,SKC,0.00,WeatherDisplay:10.37,2013-03-04 07:35:00,
2013-03-04 02:40:00,22.8,17.3,30.05,ENE,68,0.0,0.0,79,0.00,CLR,SKC,0.00,WeatherDisplay:10.37,2013-03-04 07:40:00,
2013-03-04 02:45:00,22.8,17.3,30.05,ENE,68,0.0,0.0,79,0.00,CLR,SKC,0.00,WeatherDisplay:10.37,2013-03-04 07:45:00,
2013-03-04 02:50:00,22.6,17.1,30.05,ENE,68,0.0,0.0,79,0.00,CLR,SKC,0.00,WeatherDisplay:10.37,2013-03-04 07:50:00,
2013-03-04 02:55:00,22.6,17.1,30.05,ENE,68,0.0,0.0,79,0.00,CLR,SKC,0.00,WeatherDisplay:10.37,2013-03-04 07:55:00,
2013-03-04 03:00:00,22.5,17.2,30.05,ENE,68,0.0,0.0,80,0.00,CLR,SKC,0.00,WeatherDisplay:10.37,2013-03-04 08:00:00,
2013-03-04 03:05:00,22.5,17.2,30.05,ENE,68,0.0,0.0,80,0.00,CLR,SKC,0.00,WeatherDisplay:10.37,2013-03-04 08:05:00,
2013-03-04 03:10:00,22.5,17.2,30.05,ENE,68,0.0,0.0,80,0.00,CLR,SKC,0.00,WeatherDisplay:10.37,2013-03-04 08:10:00,
2013-03-04 03:15:00,22.3,17.0,30.05,ENE,68,0.0,0.0,80,0.00,CLR,SKC,0.00,WeatherDisplay:10.37,2013-03-04 08:15:00,
2013-03-04 03:20:00,22.3,17.0,30.05,ENE,68,0.0,0.0,80,0.00,CLR,SKC,0.00,WeatherDisplay:10.37,2013-03-04 08:20:00,
2013-03-04 03:25:00,22.3,17.0,30.05,ENE,68,0.0,0.0,80,0.00,CLR,SKC,0.00,WeatherDisplay:10.37,2013-03-04 08:25:00,
2013-03-04 03:30:00,22.1,16.9,30.05,ENE,68,0.0,0.0,80,0.00,CLR,SKC,0.00,WeatherDisplay:10.37,2013-03-04 08:30:00,
2013-03-04 03:35:00,22.1,16.9,30.05,ENE,68,0.0,0.0,80,0.00,CLR,SKC,0.00,WeatherDisplay:10.37,2013-03-04 08:35:00,
2013-03-04 03:40:00,21.9,16.7,30.05,ENE,68,0.0,0.0,80,0.00,CLR,SKC,0.00,WeatherDisplay:10.37,2013-03-04 08:40:00,
2013-03-04 03:45:00,21.9,16.7,30.05,ENE,68,0.0,0.0,80,0.00,CLR,SKC,0.00,WeatherDisplay:10.37,2013-03-04 08:45:00,
2013-03-04 03:50:00,21.9,17.0,30.05,ENE,68,0.0,0.0,81,0.00,CLR,SKC,0.00,WeatherDisplay:10.37,2013-03-04 08:50:00,
2013-03-04 03:55:00,21.9,17.0,30.05,ENE,68,0.0,0.0,81,0.00,CLR,SKC,0.00,WeatherDisplay:10.37,2013-03-04 08:55:00,
2013-03-04 04:00:00,21.7,16.8,30.05,ENE,68,0.0,0.0,81,0.00,CLR,SKC,0.00,WeatherDisplay:10.37,2013-03-04 09:00:00,
2013-03-04 04:05:00,21.7,16.8,30.05,ENE,68,0.0,0.0,81,0.00,CLR,SKC,0.00,WeatherDisplay:10.37,2013-03-04 09:05:00,
2013-03-04 04:10:00,21.7,16.8,30.05,ENE,68,0.0,0.0,81,0.00,CLR,SKC,0.00,WeatherDisplay:10.37,2013-03-04 09:10:00,
2013-03-04 04:15:00,21.7,16.8,30.05,ENE,68,0.0,0.0,81,0.00,CLR,SKC,0.00,WeatherDisplay:10.37,2013-03-04 09:15:00,
2013-03-04 04:20:00,21.7,17.1,30.05,ENE,68,0.0,0.0,82,0.00,CLR,SKC,0.00,WeatherDisplay:10.37,2013-03-04 09:20:00,
2013-03-04 04:25:00,21.7,17.1,30.04,ENE,68,0.0,0.0,82,0.00,CLR,SKC,0.00,WeatherDisplay:10.37,2013-03-04 09:25:00,
2013-03-04 04:30:00,21.7,17.1,30.04,ENE,68,0.0,0.0,82,0.00,CLR,SKC,0.00,WeatherDisplay:10.37,2013-03-04 09:30:00,
2013-03-04 04:35:00,21.7,17.1,30.04,ENE,68,0.0,0.0,82,0.00,CLR,SKC,0.00,WeatherDisplay:10.37,2013-03-04 09:35:00,
2013-03-04 04:40:00,21.7,17.1,30.04,ENE,68,0.0,0.0,82,0.00,CLR,SKC,0.00,WeatherDisplay:10.37,2013-03-04 09:40:00,
2013-03-04 04:45:00,21.7,17.1,30.04,ENE,68,0.0,0.0,82,0.00,CLR,SKC,0.00,WeatherDisplay:10.37,2013-03-04 09:45:00,
2013-03-04 04:50:00,21.7,17.1,30.03,ENE,68,0.0,0.0,82,0.00,CLR,SKC,0.00,WeatherDisplay:10.37,2013-03-04 09:50:00,
2013-03-04 04:55:00,21.9,17.3,30.04,ENE,68,0.0,0.0,82,0.00,CLR,SKC,0.00,WeatherDisplay:10.37,2013-03-04 09:55:00,
2013-03-04 05:00:00,21.9,17.3,30.04,ENE,68,0.0,0.0,82,0.00,CLR,SKC,0.00,WeatherDisplay:10.37,2013-03-04 10:00:00,
2013-03-04 05:05:00,21.9,17.3,30.04,ENE,68,0.0,0.0,82,0.00,CLR,SKC,0.00,WeatherDisplay:10.37,2013-03-04 10:05:00,
2013-03-04 05:10:00,21.7,17.1,30.04,ENE,68,0.0,0.0,82,0.00,CLR,SKC,0.00,WeatherDisplay:10.37,2013-03-04 10:10:00,
2013-03-04 05:15:00,21.7,17.1,30.04,ENE,68,0.0,0.0,82,0.00,CLR,SKC,0.00,WeatherDisplay:10.37,2013-03-04 10:15:00,
2013-03-04 05:20:00,21.7,17.1,30.04,ENE,68,0.0,0.0,82,0.00,CLR,SKC,0.00,WeatherDisplay:10.37,2013-03-04 10:20:00,
2013-03-04 05:25:00,21.7,17.1,30.04,ENE,68,0.0,0.0,82,0.00,CLR,SKC,0.00,WeatherDisplay:10.37,2013-03-04 10:25:00,
2013-03-04 05:30:00,21.9,17.3,30.04,ENE,68,0.0,0.0,82,0.00,CLR,SKC,0.00,WeatherDisplay:10.37,2013-03-04 10:30:00,
2013-03-04 05:35:00,21.9,17.5,30.05,ENE,68,0.0,0.0,83,0.00,CLR,SKC,0.00,WeatherDisplay:10.37,2013-03-04 10:35:00,
2013-03-04 05:40:00,21.9,17.5,30.04,ENE,68,0.2,0.0,83,0.00,CLR,SKC,0.00,WeatherDisplay:10.37,2013-03-04 10:40:00,
2013-03-04 05:45:00,22.1,17.7,30.04,ENE,68,0.0,0.0,83,0.00,CLR,SKC,0.00,WeatherDisplay:10.37,2013-03-04 10:45:00,
2013-03-04 05:50:00,22.1,17.7,30.04,ENE,68,0.0,0.0,83,0.00,CLR,SKC,0.00,WeatherDisplay:10.37,2013-03-04 10:50:00,
2013-03-04 05:55:00,22.1,17.7,30.04,ENE,68,0.0,0.0,83,0.00,CLR,SKC,0.00,WeatherDisplay:10.37,2013-03-04 10:55:00,
2013-03-04 06:00:00,22.1,17.7,30.03,ENE,68,0.2,1.1,83,0.00,CLR,SKC,0.00,WeatherDisplay:10.37,2013-03-04 11:00:00,
2013-03-04 06:05:00,22.3,17.9,30.03,ENE,68,0.8,1.1,83,0.00,CLR,SKC,0.00,WeatherDisplay:10.37,2013-03-04 11:05:00,
2013-03-04 06:10:00,22.3,17.9,30.03,ENE,68,0.0,0.0,83,0.00,CLR,SKC,0.00,WeatherDisplay:10.37,2013-03-04 11:10:00,
2013-03-04 06:15:00,22.5,18.1,30.03,ENE,68,0.0,0.0,83,0.00,CLR,SKC,0.00,WeatherDisplay:10.37,2013-03-04 11:15:00,
2013-03-04 06:20:00,22.6,18.3,30.03,ENE,68,0.0,0.0,83,0.00,CLR,SKC,0.00,WeatherDisplay:10.37,2013-03-04 11:20:00,
2013-03-04 06:25:00,22.6,18.3,30.04,ENE,68,0.0,0.0,83,0.00,CLR,SKC,0.00,WeatherDisplay:10.37,2013-03-04 11:25:00,
2013-03-04 06:30:00,22.8,18.4,30.03,ENE,68,0.0,0.0,83,0.00,CLR,SKC,0.00,WeatherDisplay:10.37,2013-03-04 11:30:00,
2013-03-04 06:35:00,22.8,18.1,30.04,ENE,68,0.0,0.0,82,0.00,CLR,SKC,0.00,WeatherDisplay:10.37,2013-03-04 11:35:00,
2013-03-04 06:40:00,23.0,18.3,30.03,ENE,68,0.0,0.0,82,0.00,CLR,SKC,0.00,WeatherDisplay:10.37,2013-03-04 11:40:00,
2013-03-04 06:45:00,23.2,18.5,30.04,ENE,68,0.0,0.0,82,0.00,CLR,SKC,0.00,WeatherDisplay:10.37,2013-03-04 11:45:00,
2013-03-04 06:50:00,23.2,18.5,30.03,East,90,0.0,0.0,82,0.00,CLR,SKC,0.00,WeatherDisplay:10.37,2013-03-04 11:50:00,
2013-03-04 06:55:00,23.4,18.7,30.03,East,90,0.3,1.1,82,0.00,CLR,SKC,0.00,WeatherDisplay:10.37,2013-03-04 11:55:00,
2013-03-04 07:00:00,23.4,18.4,30.03,East,90,0.2,1.1,81,0.00,CLR,SKC,0.00,WeatherDisplay:10.37,2013-03-04 12:00:00,
2013-03-04 07:05:00,23.5,18.6,30.03,ESE,112,1.2,3.1,81,0.00,CLR,SKC,0.00,WeatherDisplay:10.37,2013-03-04 12:05:00,
2013-03-04 07:10:00,23.5,18.6,30.03,East,90,0.0,0.0,81,0.00,CLR,SKC,0.00,WeatherDisplay:10.37,2013-03-04 12:10:00,
2013-03-04 07:15:00,23.5,18.6,30.03,SE,135,0.3,2.3,81,0.00,CLR,SKC,0.00,WeatherDisplay:10.37,2013-03-04 12:15:00,
2013-03-04 07:20:00,23.7,18.7,30.03,East,90,0.0,0.0,81,0.00,CLR,SKC,0.00,WeatherDisplay:10.37,2013-03-04 12:20:00,
2013-03-04 07:25:00,23.7,18.5,30.03,ESE,112,0.2,0.0,80,0.00,CLR,SKC,0.00,WeatherDisplay:10.37,2013-03-04 12:25:00,
2013-03-04 07:30:00,23.9,18.6,30.03,ESE,112,0.3,1.1,80,0.00,CLR,SKC,0.00,WeatherDisplay:10.37,2013-03-04 12:30:00,
2013-03-04 07:35:00,23.9,18.6,30.02,East,90,0.1,2.3,80,0.00,CLR,SKC,0.00,WeatherDisplay:10.37,2013-03-04 12:35:00,
2013-03-04 07:40:00,24.1,18.8,30.03,East,90,0.0,0.0,80,0.00,CLR,SKC,0.00,WeatherDisplay:10.37,2013-03-04 12:40:00,
2013-03-04 07:45:00,24.1,18.8,30.02,East,90,0.9,2.3,80,0.00,CLR,SKC,0.00,WeatherDisplay:10.37,2013-03-04 12:45:00,
2013-03-04 07:50:00,24.4,19.2,30.03,East,90,0.0,0.0,80,0.00,CLR,SKC,0.00,WeatherDisplay:10.37,2013-03-04 12:50:00,
2013-03-04 07:55:00,24.6,19.3,30.02,ESE,112,0.2,3.5,80,0.00,CLR,SKC,0.00,WeatherDisplay:10.37,2013-03-04 12:55:00,
2013-03-04 08:00:00,24.6,19.3,30.03,ESE,112,0.2,1.1,80,0.00,CLR,SKC,0.00,WeatherDisplay:10.37,2013-03-04 13:00:00,
2013-03-04 08:05:00,25.0,19.7,30.02,ESE,112,0.6,1.1,80,0.00,CLR,SKC,0.00,WeatherDisplay:10.37,2013-03-04 13:05:00,
2013-03-04 08:10:00,25.2,19.6,30.03,SE,135,0.4,1.1,79,0.00,CLR,SKC,0.00,WeatherDisplay:10.37,2013-03-04 13:10:00,
2013-03-04 08:15:00,25.3,19.7,30.02,East,90,0.1,2.3,79,0.00,CLR,SKC,0.00,WeatherDisplay:10.37,2013-03-04 13:15:00,
2013-03-04 08:20:00,25.7,20.1,30.02,ESE,112,0.1,2.3,79,0.00,CLR,SKC,0.00,WeatherDisplay:10.37,2013-03-04 13:20:00,
2013-03-04 08:25:00,25.9,20.3,30.02,SE,135,3.4,3.5,79,0.00,CLR,SKC,0.00,WeatherDisplay:10.37,2013-03-04 13:25:00,
2013-03-04 08:30:00,26.2,20.6,30.03,ESE,112,0.7,1.1,79,0.00,CLR,SKC,0.00,WeatherDisplay:10.37,2013-03-04 13:30:00,
2013-03-04 08:35:00,26.4,20.5,30.03,SE,135,3.2,4.6,78,0.00,CLR,SKC,0.00,WeatherDisplay:10.37,2013-03-04 13:35:00,
2013-03-04 08:40:00,26.6,20.7,30.03,ESE,112,3.3,5.8,78,0.00,CLR,SKC,0.00,WeatherDisplay:10.37,2013-03-04 13:40:00,
2013-03-04 08:45:00,27.1,20.9,30.03,East,90,1.1,2.7,77,0.00,CLR,SKC,0.00,WeatherDisplay:10.37,2013-03-04 13:45:00,
2013-03-04 08:50:00,27.3,21.1,30.03,ESE,112,1.4,3.5,77,0.00,CLR,SKC,0.00,WeatherDisplay:10.37,2013-03-04 13:50:00,
2013-03-04 08:55:00,27.7,21.4,30.04,ESE,112,0.0,1.1,77,0.00,CLR,SKC,0.00,WeatherDisplay:10.37,2013-03-04 13:55:00,
2013-03-04 09:00:00,28.2,21.9,30.03,ESE,112,0.8,3.5,77,0.00,CLR,SKC,0.00,WeatherDisplay:10.37,2013-03-04 14:00:00,
2013-03-04 09:05:00,28.6,22.3,30.04,SE,135,1.1,2.5,77,0.00,CLR,SKC,0.00,WeatherDisplay:10.37,2013-03-04 14:05:00,
2013-03-04 09:10:00,28.9,22.3,30.04,ENE,68,1.8,2.3,76,0.00,CLR,SKC,0.00,WeatherDisplay:10.37,2013-03-04 14:10:00,
2013-03-04 09:15:00,29.3,22.4,30.04,ENE,68,1.3,3.5,75,0.00,CLR,SKC,0.00,WeatherDisplay:10.37,2013-03-04 14:15:00,
2013-03-04 09:20:00,29.8,22.6,30.05,East,90,0.7,3.5,74,0.00,CLR,SKC,0.00,WeatherDisplay:10.37,2013-03-04 14:20:00,
2013-03-04 09:25:00,30.0,22.7,30.05,East,90,2.9,3.5,74,0.00,CLR,SKC,0.00,WeatherDisplay:10.37,2013-03-04 14:25:00,
2013-03-04 09:30:00,30.6,22.9,30.04,ENE,68,0.0,1.1,73,0.00,CLR,SKC,0.00,WeatherDisplay:10.37,2013-03-04 14:30:00,
2013-03-04 09:35:00,30.7,22.8,30.04,East,90,2.5,3.6,72,0.00,CLR,SKC,0.00,WeatherDisplay:10.37,2013-03-04 14:35:00,
2013-03-04 09:40:00,31.1,22.8,30.03,SE,135,0.4,2.3,71,0.00,CLR,SKC,0.00,WeatherDisplay:10.37,2013-03-04 14:40:00,
2013-03-04 09:45:00,31.3,23.0,30.04,SE,135,1.8,3.5,71,0.00,CLR,SKC,0.00,WeatherDisplay:10.37,2013-03-04 14:45:00,
2013-03-04 09:50:00,31.8,23.1,30.04,East,90,0.2,1.1,70,0.00,CLR,SKC,0.00,WeatherDisplay:10.37,2013-03-04 14:50:00,
2013-03-04 09:55:00,32.4,23.7,30.04,ESE,112,0.7,3.5,70,0.00,CLR,SKC,0.00,WeatherDisplay:10.37,2013-03-04 14:55:00,
2013-03-04 10:00:00,32.7,23.3,30.04,ESE,112,1.5,2.9,68,0.00,CLR,SKC,0.00,WeatherDisplay:10.37,2013-03-04 15:00:00,
2013-03-04 10:05:00,33.1,23.7,30.03,SE,135,0.9,3.6,68,0.00,CLR,SKC,0.00,WeatherDisplay:10.37,2013-03-04 15:05:00,
2013-03-04 10:10:00,33.6,24.2,30.03,ESE,112,3.4,5.8,68,0.00,CLR,SKC,0.00,WeatherDisplay:10.37,2013-03-04 15:10:00,
2013-03-04 10:15:00,33.6,23.8,30.03,SE,135,1.3,2.5,67,0.00,CLR,SKC,0.00,WeatherDisplay:10.37,2013-03-04 15:15:00,
2013-03-04 10:20:00,33.8,23.6,30.03,East,90,2.1,8.1,66,0.00,CLR,SKC,0.00,WeatherDisplay:10.37,2013-03-04 15:20:00,
2013-03-04 10:25:00,34.0,23.8,30.03,ESE,112,3.5,4.7,66,0.00,CLR,SKC,0.00,WeatherDisplay:10.37,2013-03-04 15:25:00,
2013-03-04 10:30:00,34.2,24.0,30.04,South,180,1.9,3.8,66,0.00,CLR,SKC,0.00,WeatherDisplay:10.37,2013-03-04 15:30:00,
2013-03-04 10:35:00,34.3,24.2,30.03,SE,135,1.0,2.3,66,0.00,CLR,SKC,0.00,WeatherDisplay:10.37,2013-03-04 15:35:00,
2013-03-04 10:40:00,34.3,23.8,30.03,ENE,68,0.3,4.6,65,0.00,CLR,SKC,0.00,WeatherDisplay:10.37,2013-03-04 15:40:00,
2013-03-04 10:45:00,34.7,24.1,30.03,ESE,112,0.0,0.0,65,0.00,CLR,SKC,0.00,WeatherDisplay:10.37,2013-03-04 15:45:00,
2013-03-04 10:50:00,35.2,24.6,30.03,SE,135,0.9,2.3,65,0.00,CLR,SKC,0.00,WeatherDisplay:10.37,2013-03-04 15:50:00,
2013-03-04 10:55:00,35.2,24.3,30.03,East,90,1.8,2.3,64,0.00,CLR,SKC,0.00,WeatherDisplay:10.37,2013-03-04 15:55:00,
2013-03-04 11:00:00,35.4,24.4,30.03,SE,135,1.5,7.8,64,0.00,CLR,SKC,0.00,WeatherDisplay:10.37,2013-03-04 16:00:00,
2013-03-04 11:05:00,35.8,24.8,30.03,ESE,112,0.8,5.8,64,0.00,CLR,SKC,0.00,WeatherDisplay:10.37,2013-03-04 16:05:00,
2013-03-04 11:10:00,36.3,25.7,30.03,ENE,68,4.9,6.9,65,0.00,CLR,SKC,0.00,WeatherDisplay:10.37,2013-03-04 16:10:00,
2013-03-04 11:15:00,37.0,26.0,30.03,NE,45,0.9,3.5,64,0.00,CLR,SKC,0.00,WeatherDisplay:10.37,2013-03-04 16:15:00,
2013-03-04 11:20:00,37.8,26.3,30.03,ENE,68,1.5,4.6,63,0.00,CLR,SKC,0.00,WeatherDisplay:10.37,2013-03-04 16:20:00,
2013-03-04 11:25:00,38.1,26.6,30.02,East,90,3.0,5.1,63,0.00,CLR,SKC,0.00,WeatherDisplay:10.37,2013-03-04 16:25:00,
2013-03-04 11:30:00,38.1,26.2,30.03,SE,135,3.4,8.1,62,0.00,CLR,SKC,0.00,WeatherDisplay:10.37,2013-03-04 16:30:00,
2013-03-04 11:35:00,37.9,26.1,30.02,SSE,158,2.9,6.3,62,0.00,CLR,SKC,0.00,WeatherDisplay:10.37,2013-03-04 16:35:00,
2013-03-04 11:40:00,38.1,26.2,30.02,ESE,112,1.4,3.5,62,0.00,CLR,SKC,0.00,WeatherDisplay:10.37,2013-03-04 16:40:00,
2013-03-04 11:45:00,38.1,26.2,30.02,ESE,112,2.6,3.1,62,0.00,CLR,SKC,0.00,WeatherDisplay:10.37,2013-03-04 16:45:00,
2013-03-04 11:50:00,38.1,25.8,30.02,ESE,112,4.5,5.8,61,0.00,CLR,SKC,0.00,WeatherDisplay:10.37,2013-03-04 16:50:00,
2013-03-04 11:55:00,37.9,25.7,30.02,SE,135,0.9,3.5,61,0.00,CLR,SKC,0.00,WeatherDisplay:10.37,2013-03-04 16:55:00,
2013-03-04 12:00:00,38.1,25.8,30.02,East,90,4.9,6.9,61,0.00,CLR,SKC,0.00,WeatherDisplay:10.37,2013-03-04 17:00:00,
2013-03-04 12:05:00,38.3,26.0,30.01,ESE,112,0.5,2.3,61,0.00,CLR,SKC,0.00,WeatherDisplay:10.37,2013-03-04 17:05:00,
2013-03-04 12:10:00,38.5,26.2,30.01,SE,135,2.9,4.6,61,0.00,CLR,SKC,0.00,WeatherDisplay:10.37,2013-03-04 17:10:00,
2013-03-04 12:15:00,38.8,26.5,30.01,SE,135,1.6,3.6,61,0.00,CLR,SKC,0.00,WeatherDisplay:10.37,2013-03-04 17:15:00,
2013-03-04 12:20:00,39.0,26.3,30.01,SE,135,1.9,2.3,60,0.00,CLR,SKC,0.00,WeatherDisplay:10.37,2013-03-04 17:20:00,
2013-03-04 12:25:00,39.0,26.3,30.01,SSE,158,6.0,9.2,60,0.00,CLR,SKC,0.00,WeatherDisplay:10.37,2013-03-04 17:25:00,
2013-03-04 12:30:00,38.8,26.1,30.00,ESE,112,2.6,6.9,60,0.00,CLR,SKC,0.00,WeatherDisplay:10.37,2013-03-04 17:30:00,
2013-03-04 12:35:00,39.0,26.3,30.01,SE,135,4.0,9.2,60,0.00,CLR,SKC,0.00,WeatherDisplay:10.37,2013-03-04 17:35:00,
2013-03-04 12:40:00,39.0,26.3,30.00,SE,135,2.8,4.7,60,0.00,CLR,SKC,0.00,WeatherDisplay:10.37,2013-03-04 17:40:00,
2013-03-04 12:45:00,39.2,26.5,30.00,East,90,3.8,3.8,60,0.00,CLR,SKC,0.00,WeatherDisplay:10.37,2013-03-04 17:45:00,
2013-03-04 12:50:00,39.7,27.0,30.00,SE,135,1.5,3.5,60,0.00,CLR,SKC,0.00,WeatherDisplay:10.37,2013-03-04 17:50:00,
2013-03-04 12:55:00,40.1,27.3,30.00,SSE,158,3.3,4.6,60,0.00,CLR,SKC,0.00,WeatherDisplay:10.37,2013-03-04 17:55:00,
2013-03-04 13:00:00,40.5,27.2,30.00,SE,135,1.6,3.5,59,0.00,CLR,SKC,0.00,WeatherDisplay:10.37,2013-03-04 18:00:00,
2013-03-04 13:05:00,40.8,27.6,30.00,ESE,112,3.0,4.6,59,0.00,CLR,SKC,0.00,WeatherDisplay:10.37,2013-03-04 18:05:00,
2013-03-04 13:10:00,40.6,27.0,29.99,SE,135,3.2,4.6,58,0.00,CLR,SKC,0.00,WeatherDisplay:10.37,2013-03-04 18:10:00,
2013-03-04 13:15:00,40.6,27.0,29.99,SE,135,2.9,4.0,58,0.00,CLR,SKC,0.00,WeatherDisplay:10.37,2013-03-04 18:15:00,
2013-03-04 13:20:00,40.8,27.2,29.99,SE,135,2.6,4.6,58,0.00,CLR,SKC,0.00,WeatherDisplay:10.37,2013-03-04 18:20:00,
2013-03-04 13:25:00,40.8,27.2,29.98,ESE,112,1.4,6.9,58,0.00,CLR,SKC,0.00,WeatherDisplay:10.37,2013-03-04 18:25:00,
2013-03-04 13:29:00,40.8,26.7,29.98,ENE,68,3.2,3.5,57,0.00,CLR,SKC,0.00,WeatherDisplay:10.37,2013-03-04 18:29:00,
2013-03-04 13:34:00,40.8,26.7,29.97,ESE,112,1.2,3.5,57,0.00,CLR,SKC,0.00,WeatherDisplay:10.37,2013-03-04 18:34:00,
2013-03-04 13:39:00,40.8,26.7,29.98,ESE,112,2.0,4.6,57,0.00,CLR,SKC,0.00,WeatherDisplay:10.37,2013-03-04 18:39:00,
2013-03-04 13:45:00,40.6,26.6,29.97,SE,135,5.4,10.4,57,0.00,CLR,SKC,0.00,WeatherDisplay:10.37,2013-03-04 18:45:00,
2013-03-04 13:50:00,40.6,26.6,29.97,East,90,3.4,5.8,57,0.00,CLR,SKC,0.00,WeatherDisplay:10.37,2013-03-04 18:50:00,
2013-03-04 13:55:00,40.8,27.2,29.97,East,90,1.1,4.6,58,0.00,CLR,SKC,0.00,WeatherDisplay:10.37,2013-03-04 18:55:00,
2013-03-04 14:00:00,40.8,27.2,29.97,NE,45,2.5,3.5,58,0.00,CLR,SKC,0.00,WeatherDisplay:10.37,2013-03-04 19:00:00,
2013-03-04 14:05:00,40.8,26.7,29.97,SE,135,1.2,4.6,57,0.00,CLR,SKC,0.00,WeatherDisplay:10.37,2013-03-04 19:05:00,
2013-03-04 14:10:00,40.8,26.7,29.97,East,90,1.1,3.5,57,0.00,CLR,SKC,0.00,WeatherDisplay:10.37,2013-03-04 19:10:00,
2013-03-04 14:15:00,40.8,26.7,29.97,East,90,3.6,4.6,57,0.00,CLR,SKC,0.00,WeatherDisplay:10.37,2013-03-04 19:15:00,
2013-03-04 14:20:00,40.8,26.7,29.97,ESE,112,1.4,2.3,57,0.00,CLR,SKC,0.00,WeatherDisplay:10.37,2013-03-04 19:20:00,
2013-03-04 14:25:00,40.6,26.6,29.96,ESE,112,1.4,3.5,57,0.00,CLR,SKC,0.00,WeatherDisplay:10.37,2013-03-04 19:25:00,
2013-03-04 14:30:00,40.3,26.2,29.96,SE,135,0.5,3.4,57,0.00,CLR,SKC,0.00,WeatherDisplay:10.37,2013-03-04 19:30:00,
2013-03-04 14:35:00,39.9,25.9,29.96,East,90,3.2,8.1,57,0.00,CLR,SKC,0.00,WeatherDisplay:10.37,2013-03-04 19:35:00,
2013-03-04 14:40:00,39.4,25.8,29.96,SE,135,1.0,5.8,58,0.00,CLR,SKC,0.00,WeatherDisplay:10.37,2013-03-04 19:40:00,
2013-03-04 14:45:00,39.6,26.4,29.95,East,90,1.1,1.1,59,0.00,CLR,SKC,0.00,WeatherDisplay:10.37,2013-03-04 19:45:00,
2013-03-04 14:50:00,39.6,26.4,29.95,ESE,112,1.9,3.5,59,0.00,CLR,SKC,0.00,WeatherDisplay:10.37,2013-03-04 19:50:00,
2013-03-04 14:55:00,39.4,26.2,29.95,ESE,112,3.2,6.9,59,0.00,CLR,SKC,0.00,WeatherDisplay:10.37,2013-03-04 19:55:00,
2013-03-04 15:00:00,39.4,26.2,29.95,ESE,112,1.9,4.6,59,0.00,CLR,SKC,0.00,WeatherDisplay:10.37,2013-03-04 20:00:00,
2013-03-04 15:05:00,39.4,26.2,29.95,East,90,1.3,3.5,59,0.00,CLR,SKC,0.00,WeatherDisplay:10.37,2013-03-04 20:05:00,
2013-03-04 15:10:00,39.0,26.3,29.95,SSE,158,0.6,1.3,60,0.00,CLR,SKC,0.00,WeatherDisplay:10.37,2013-03-04 20:10:00,
2013-03-04 15:15:00,39.0,26.3,29.95,ESE,112,1.4,3.8,60,0.00,CLR,SKC,0.00,WeatherDisplay:10.37,2013-03-04 20:15:00,
2013-03-04 15:20:00,39.0,26.3,29.95,ESE,112,2.2,4.6,60,0.00,CLR,SKC,0.00,WeatherDisplay:10.37,2013-03-04 20:20:00,
2013-03-04 15:25:00,39.0,26.7,29.94,ENE,68,0.9,3.5,61,0.00,CLR,SKC,0.00,WeatherDisplay:10.37,2013-03-04 20:25:00,
2013-03-04 15:30:00,39.0,26.7,29.94,ESE,112,1.1,3.5,61,0.00,CLR,SKC,0.00,WeatherDisplay:10.37,2013-03-04 20:30:00,
2013-03-04 15:35:00,39.0,26.7,29.94,East,90,1.3,3.5,61,0.00,CLR,SKC,0.00,WeatherDisplay:10.37,2013-03-04 20:35:00,
2013-03-04 15:40:00,39.0,26.7,29.93,ENE,68,1.7,3.5,61,0.00,CLR,SKC,0.00,WeatherDisplay:10.37,2013-03-04 20:40:00,
2013-03-04 15:45:00,39.0,26.7,29.93,East,90,1.8,8.1,61,0.00,CLR,SKC,0.00,WeatherDisplay:10.37,2013-03-04 20:45:00,
2013-03-04 15:50:00,39.0,26.7,29.93,East,90,1.5,3.5,61,0.00,CLR,SKC,0.00,WeatherDisplay:10.37,2013-03-04 20:50:00,
2013-03-04 15:55:00,39.0,27.1,29.93,ENE,68,2.2,3.5,62,0.00,CLR,SKC,0.00,WeatherDisplay:10.37,2013-03-04 20:55:00,
2013-03-04 16:00:00,39.0,27.1,29.93,SE,135,2.0,3.5,62,0.00,CLR,SKC,0.00,WeatherDisplay:10.37,2013-03-04 21:00:00,
2013-03-04 16:05:00,39.4,27.4,29.92,East,90,1.5,6.9,62,0.00,CLR,SKC,0.00,WeatherDisplay:10.37,2013-03-04 21:05:00,
2013-03-04 16:10:00,39.6,27.6,29.92,ENE,68,0.6,2.5,62,0.00,CLR,SKC,0.00,WeatherDisplay:10.37,2013-03-04 21:10:00,
2013-03-04 16:15:00,39.7,27.8,29.92,SE,135,0.7,2.5,62,0.00,CLR,SKC,0.00,WeatherDisplay:10.37,2013-03-04 21:15:00,
2013-03-04 16:20:00,39.6,27.6,29.92,East,90,1.9,2.3,62,0.00,CLR,SKC,0.00,WeatherDisplay:10.37,2013-03-04 21:20:00,
2013-03-04 16:25:00,39.6,27.6,29.91,ESE,112,1.0,2.7,62,0.00,CLR,SKC,0.00,WeatherDisplay:10.37,2013-03-04 21:25:00,
2013-03-04 16:30:00,39.6,28.0,29.91,East,90,1.5,2.3,63,0.00,CLR,SKC,0.00,WeatherDisplay:10.37,2013-03-04 21:30:00,
2013-03-04 16:35:00,39.7,28.2,29.91,ESE,112,1.9,3.5,63,0.00,CLR,SKC,0.00,WeatherDisplay:10.37,2013-03-04 21:35:00,
2013-03-04 16:40:00,39.4,27.8,29.91,ESE,112,1.3,3.5,63,0.00,CLR,SKC,0.00,WeatherDisplay:10.37,2013-03-04 21:40:00,
2013-03-04 16:45:00,39.0,27.5,29.91,NE,45,1.6,5.4,63,0.00,CLR,SKC,0.00,WeatherDisplay:10.37,2013-03-04 21:45:00,
2013-03-04 16:50:00,38.8,27.3,29.90,East,90,0.9,4.6,63,0.00,CLR,SKC,0.00,WeatherDisplay:10.37,2013-03-04 21:50:00,
2013-03-04 16:55:00,38.8,27.3,29.90,East,90,2.8,3.5,63,0.00,CLR,SKC,0.00,WeatherDisplay:10.37,2013-03-04 21:55:00,
2013-03-04 17:00:00,38.7,27.5,29.90,East,90,2.7,5.8,64,0.00,CLR,SKC,0.00,WeatherDisplay:10.37,2013-03-04 22:00:00,
2013-03-04 17:05:00,38.5,27.4,29.90,East,90,0.8,1.1,64,0.00,CLR,SKC,0.00,WeatherDisplay:10.37,2013-03-04 22:05:00,
2013-03-04 17:10:00,38.3,27.2,29.90,SE,135,2.4,4.6,64,0.00,CLR,SKC,0.00,WeatherDisplay:10.37,2013-03-04 22:10:00,
2013-03-04 17:15:00,38.1,27.4,29.90,East,90,1.7,5.8,65,0.00,CLR,SKC,0.00,WeatherDisplay:10.37,2013-03-04 22:15:00,
2013-03-04 17:20:00,37.9,27.2,29.90,ESE,112,0.2,1.3,65,0.00,CLR,SKC,0.00,WeatherDisplay:10.37,2013-03-04 22:20:00,
2013-03-04 17:25:00,37.9,27.6,29.90,SE,135,2.0,5.8,66,0.00,CLR,SKC,0.00,WeatherDisplay:10.37,2013-03-04 22:25:00,
2013-03-04 17:30:00,37.8,27.4,29.90,ESE,112,0.7,2.3,66,0.00,CLR,SKC,0.00,WeatherDisplay:10.37,2013-03-04 22:30:00,
2013-03-04 17:35:00,37.6,27.6,29.90,East,90,0.8,3.5,67,0.00,CLR,SKC,0.00,WeatherDisplay:10.37,2013-03-04 22:35:00,
2013-03-04 17:40:00,37.4,27.4,29.90,East,90,0.5,0.0,67,0.00,CLR,SKC,0.00,WeatherDisplay:10.37,2013-03-04 22:40:00,
2013-03-04 17:45:00,37.4,27.4,29.90,East,90,0.0,0.0,67,0.00,CLR,SKC,0.00,WeatherDisplay:10.37,2013-03-04 22:45:00,
2013-03-04 17:50:00,37.2,27.6,29.90,East,90,2.2,3.8,68,0.00,CLR,SKC,0.00,WeatherDisplay:10.37,2013-03-04 22:50:00,
2013-03-04 17:55:00,37.2,27.6,29.90,ENE,68,1.7,4.6,68,0.00,CLR,SKC,0.00,WeatherDisplay:10.37,2013-03-04 22:55:00,
2013-03-04 18:00:00,37.2,27.6,29.90,ENE,68,0.3,3.5,68,0.00,CLR,SKC,0.00,WeatherDisplay:10.37,2013-03-04 23:00:00,
2013-03-04 18:05:00,37.2,27.6,29.90,ESE,112,1.0,3.5,68,0.00,CLR,SKC,0.00,WeatherDisplay:10.37,2013-03-04 23:05:00,
2013-03-04 18:10:00,37.0,27.5,29.90,East,90,0.9,4.6,68,0.00,CLR,SKC,0.00,WeatherDisplay:10.37,2013-03-04 23:10:00,
2013-03-04 18:15:00,36.9,27.6,29.90,ENE,68,0.6,1.3,69,0.00,CLR,SKC,0.00,WeatherDisplay:10.37,2013-03-04 23:15:00,
2013-03-04 18:20:00,36.9,27.6,29.90,ENE,68,0.0,1.1,69,0.00,CLR,SKC,0.00,WeatherDisplay:10.37,2013-03-04 23:20:00,
2013-03-04 18:25:00,36.7,27.5,29.90,ENE,68,1.2,3.5,69,0.00,CLR,SKC,0.00,WeatherDisplay:10.37,2013-03-04 23:25:00,
2013-03-04 18:30:00,36.5,27.3,29.90,East,90,0.4,2.3,69,0.00,CLR,SKC,0.00,WeatherDisplay:10.37,2013-03-04 23:30:00,
2013-03-04 18:35:00,36.5,27.3,29.91,East,90,1.6,3.5,69,0.00,CLR,SKC,0.00,WeatherDisplay:10.37,2013-03-04 23:35:00,
2013-03-04 18:40:00,36.5,27.6,29.90,SE,135,0.5,3.1,70,0.00,CLR,SKC,0.00,WeatherDisplay:10.37,2013-03-04 23:40:00,
2013-03-04 18:45:00,36.5,27.6,29.91,East,90,0.8,2.3,70,0.00,CLR,SKC,0.00,WeatherDisplay:10.37,2013-03-04 23:45:00,
2013-03-04 18:50:00,36.3,27.5,29.90,East,90,0.3,2.3,70,0.00,CLR,SKC,0.00,WeatherDisplay:10.37,2013-03-04 23:50:00,
2013-03-04 18:55:00,36.3,27.5,29.90,East,90,0.3,1.1,70,0.00,CLR,SKC,0.00,WeatherDisplay:10.37,2013-03-04 23:55:00,
2013-03-04 19:00:00,36.3,27.5,29.89,East,90,0.7,2.3,70,0.00,CLR,SKC,0.00,WeatherDisplay:10.37,2013-03-05 00:00:00,
2013-03-04 19:05:00,36.3,27.5,29.90,East,90,1.2,2.3,70,0.00,CLR,SKC,0.00,WeatherDisplay:10.37,2013-03-05 00:05:00,
2013-03-04 19:10:00,36.1,27.3,29.90,East,90,0.9,2.3,70,0.00,CLR,SKC,0.00,WeatherDisplay:10.37,2013-03-05 00:10:00,
2013-03-04 19:15:00,36.1,27.3,29.90,East,90,0.8,2.3,70,0.00,CLR,SKC,0.00,WeatherDisplay:10.37,2013-03-05 00:15:00,
2013-03-04 19:20:00,36.1,27.3,29.90,ENE,68,0.7,2.3,70,0.00,CLR,SKC,0.00,WeatherDisplay:10.37,2013-03-05 00:20:00,
2013-03-04 19:25:00,36.1,27.3,29.90,East,90,1.3,3.5,70,0.00,CLR,SKC,0.00,WeatherDisplay:10.37,2013-03-05 00:25:00,
2013-03-04 19:30:00,36.1,27.3,29.90,East,90,1.4,2.3,70,0.00,CLR,SKC,0.00,WeatherDisplay:10.37,2013-03-05 00:30:00,
2013-03-04 19:35:00,36.1,27.3,29.90,ENE,68,0.4,2.3,70,0.00,CLR,SKC,0.00,WeatherDisplay:10.37,2013-03-05 00:35:00,
2013-03-04 19:40:00,36.1,27.6,29.90,ENE,68,1.4,4.7,71,0.00,CLR,SKC,0.00,WeatherDisplay:10.37,2013-03-05 00:40:00,
2013-03-04 19:45:00,36.1,27.6,29.90,ENE,68,2.1,2.3,71,0.00,CLR,SKC,0.00,WeatherDisplay:10.37,2013-03-05 00:45:00,
2013-03-04 19:50:00,36.1,27.6,29.90,ENE,68,1.8,5.8,71,0.00,CLR,SKC,0.00,WeatherDisplay:10.37,2013-03-05 00:50:00,
2013-03-04 19:55:00,36.1,27.6,29.90,ENE,68,2.9,3.5,71,0.00,CLR,SKC,0.00,WeatherDisplay:10.37,2013-03-05 00:55:00,
2013-03-04 20:00:00,36.0,27.1,29.90,ENE,68,2.4,3.5,70,0.00,CLR,SKC,0.00,WeatherDisplay:10.37,2013-03-05 01:00:00,
2013-03-04 20:05:00,36.0,27.1,29.91,ENE,68,3.3,4.7,70,0.00,CLR,SKC,0.00,WeatherDisplay:10.37,2013-03-05 01:05:00,
2013-03-04 20:10:00,35.8,26.9,29.90,East,90,1.0,5.8,70,0.00,CLR,SKC,0.00,WeatherDisplay:10.37,2013-03-05 01:10:00,
2013-03-04 20:15:00,35.8,26.9,29.90,East,90,1.1,3.5,70,0.00,CLR,SKC,0.00,WeatherDisplay:10.37,2013-03-05 01:15:00,
2013-03-04 20:20:00,35.8,26.9,29.91,ENE,68,1.3,3.5,70,0.00,CLR,SKC,0.00,WeatherDisplay:10.37,2013-03-05 01:20:00,
2013-03-04 20:25:00,35.6,26.8,29.91,ENE,68,0.2,1.1,70,0.00,CLR,SKC,0.00,WeatherDisplay:10.37,2013-03-05 01:25:00,
2013-03-04 20:30:00,35.8,26.9,29.91,ENE,68,0.6,3.5,70,0.00,CLR,SKC,0.00,WeatherDisplay:10.37,2013-03-05 01:30:00,
2013-03-04 20:35:00,35.4,26.6,29.91,ENE,68,1.3,1.3,70,0.00,CLR,SKC,0.00,WeatherDisplay:10.37,2013-03-05 01:35:00,
2013-03-04 20:40:00,35.4,26.6,29.91,ENE,68,3.1,6.9,70,0.00,CLR,SKC,0.00,WeatherDisplay:10.37,2013-03-05 01:40:00,
2013-03-04 20:45:00,35.4,26.6,29.91,East,90,2.5,4.6,70,0.00,CLR,SKC,0.00,WeatherDisplay:10.37,2013-03-05 01:45:00,
2013-03-04 20:50:00,35.2,26.8,29.91,ESE,112,5.3,9.2,71,0.00,CLR,SKC,0.00,WeatherDisplay:10.37,2013-03-05 01:50:00,
2013-03-04 20:55:00,35.2,26.8,29.92,ESE,112,2.6,3.6,71,0.00,CLR,SKC,0.00,WeatherDisplay:10.37,2013-03-05 01:55:00,
2013-03-04 21:00:00,34.9,26.4,29.92,ENE,68,3.9,8.1,71,0.00,CLR,SKC,0.00,WeatherDisplay:10.37,2013-03-05 02:00:00,
2013-03-04 21:05:00,34.9,26.8,29.92,ESE,112,2.1,5.8,72,0.00,CLR,SKC,0.00,WeatherDisplay:10.37,2013-03-05 02:05:00,
2013-03-04 21:10:00,34.9,27.1,29.92,ESE,112,0.0,1.1,73,0.00,CLR,SKC,0.00,WeatherDisplay:10.37,2013-03-05 02:10:00,
2013-03-04 21:15:00,34.9,27.1,29.92,East,90,0.2,1.1,73,0.00,CLR,SKC,0.00,WeatherDisplay:10.37,2013-03-05 02:15:00,
2013-03-04 21:20:00,34.9,27.1,29.92,ENE,68,2.9,5.8,73,0.00,CLR,SKC,0.00,WeatherDisplay:10.37,2013-03-05 02:20:00,
2013-03-04 21:25:00,34.9,27.1,29.92,East,90,0.4,1.1,73,0.00,CLR,SKC,0.00,WeatherDisplay:10.37,2013-03-05 02:25:00,
2013-03-04 21:30:00,34.9,27.1,29.93,ENE,68,0.5,3.6,73,0.00,CLR,SKC,0.00,WeatherDisplay:10.37,2013-03-05 02:30:00,
2013-03-04 21:35:00,34.9,27.1,29.93,ENE,68,2.0,3.5,73,0.00,CLR,SKC,0.00,WeatherDisplay:10.37,2013-03-05 02:35:00,
2013-03-04 21:40:00,34.9,27.4,29.93,East,90,0.7,3.5,74,0.00,CLR,SKC,0.00,WeatherDisplay:10.37,2013-03-05 02:40:00,
2013-03-04 21:45:00,34.9,27.4,29.93,SE,135,1.2,3.5,74,0.00,CLR,SKC,0.00,WeatherDisplay:10.37,2013-03-05 02:45:00,
2013-03-04 21:50:00,34.9,27.4,29.92,East,90,1.0,2.3,74,0.00,CLR,SKC,0.00,WeatherDisplay:10.37,2013-03-05 02:50:00,
2013-03-04 21:55:00,34.9,27.4,29.93,East,90,2.2,3.5,74,0.00,CLR,SKC,0.00,WeatherDisplay:10.37,2013-03-05 02:55:00,
2013-03-04 22:00:00,34.9,27.4,29.92,East,90,1.6,3.5,74,0.00,CLR,SKC,0.00,WeatherDisplay:10.37,2013-03-05 03:00:00,
2013-03-04 22:05:00,34.9,27.4,29.92,ESE,112,1.9,4.6,74,0.00,CLR,SKC,0.00,WeatherDisplay:10.37,2013-03-05 03:05:00,
2013-03-04 22:10:00,34.9,27.4,29.92,East,90,1.2,5.8,74,0.00,CLR,SKC,0.00,WeatherDisplay:10.37,2013-03-05 03:10:00,
2013-03-04 22:15:00,34.9,27.4,29.92,ESE,112,2.8,4.6,74,0.00,CLR,SKC,0.00,WeatherDisplay:10.37,2013-03-05 03:15:00,
2013-03-04 22:20:00,34.7,27.6,29.92,ENE,68,2.1,4.6,75,0.00,CLR,SKC,0.00,WeatherDisplay:10.37,2013-03-05 03:20:00,
2013-03-04 22:25:00,34.7,27.6,29.92,ENE,68,1.9,5.1,75,0.00,CLR,SKC,0.00,WeatherDisplay:10.37,2013-03-05 03:25:00,
2013-03-04 22:30:00,34.7,27.6,29.91,NE,45,0.9,2.3,75,0.00,CLR,SKC,0.00,WeatherDisplay:10.37,2013-03-05 03:30:00,
2013-03-04 22:35:00,34.7,27.6,29.91,East,90,2.1,4.6,75,0.00,CLR,SKC,0.00,WeatherDisplay:10.37,2013-03-05 03:35:00,
2013-03-04 22:40:00,34.7,27.6,29.91,ENE,68,1.2,3.5,75,0.00,CLR,SKC,0.00,WeatherDisplay:10.37,2013-03-05 03:40:00,
2013-03-04 22:45:00,34.5,27.7,29.91,ENE,68,2.2,2.3,76,0.00,CLR,SKC,0.00,WeatherDisplay:10.37,2013-03-05 03:45:00,
2013-03-04 22:50:00,34.5,27.7,29.91,ENE,68,0.9,3.5,76,0.00,CLR,SKC,0.00,WeatherDisplay:10.37,2013-03-05 03:50:00,
2013-03-04 22:55:00,34.5,27.7,29.91,ENE,68,2.0,5.8,76,0.00,CLR,SKC,0.00,WeatherDisplay:10.37,2013-03-05 03:55:00,
2013-03-04 23:00:00,34.5,27.7,29.91,East,90,1.2,3.5,76,0.00,CLR,SKC,0.00,WeatherDisplay:10.37,2013-03-05 04:00:00,
2013-03-04 23:05:00,34.5,28.1,29.91,East,90,3.9,5.8,77,0.00,CLR,SKC,0.00,WeatherDisplay:10.37,2013-03-05 04:05:00,
2013-03-04 23:10:00,34.3,27.9,29.91,ENE,68,2.4,3.5,77,0.00,CLR,SKC,0.00,WeatherDisplay:10.37,2013-03-05 04:10:00,
2013-03-04 23:15:00,34.5,28.1,29.91,East,90,0.0,3.5,77,0.00,CLR,SKC,0.00,WeatherDisplay:10.37,2013-03-05 04:15:00,
2013-03-04 23:20:00,34.5,28.1,29.91,ENE,68,1.2,3.5,77,0.00,CLR,SKC,0.00,WeatherDisplay:10.37,2013-03-05 04:20:00,
2013-03-04 23:25:00,34.3,27.9,29.91,ESE,112,2.0,3.5,77,0.00,CLR,SKC,0.00,WeatherDisplay:10.37,2013-03-05 04:25:00,
2013-03-04 23:30:00,34.3,27.9,29.91,ESE,112,2.4,3.5,77,0.00,CLR,SKC,0.00,WeatherDisplay:10.37,2013-03-05 04:30:00,
2013-03-04 23:35:00,34.3,28.2,29.91,ESE,112,1.6,4.0,78,0.00,CLR,SKC,0.00,WeatherDisplay:10.37,2013-03-05 04:35:00,
2013-03-04 23:40:00,34.3,28.2,29.91,East,90,0.4,3.5,78,0.00,CLR,SKC,0.00,WeatherDisplay:10.37,2013-03-05 04:40:00,
2013-03-04 23:45:00,34.3,28.2,29.91,East,90,2.1,3.5,78,0.00,CLR,SKC,0.00,WeatherDisplay:10.37,2013-03-05 04:45:00,
2013-03-04 23:50:00,34.3,28.2,29.91,East,90,0.6,2.3,78,0.00,CLR,SKC,0.00,WeatherDisplay:10.37,2013-03-05 04:50:00,
2013-03-04 23:55:00,34.3,28.2,29.91,ESE,112,0.5,2.3,78,0.00,CLR,SKC,0.00,WeatherDisplay:10.37,2013-03-05 04:55:00,